Location: Arroyo de Valdeoliva
(40.1604°N, 4.9878°W)
Time: 10:08:15
(UTC+00:00)

SPOT 1/Viking Rocket - Pass Details

Date: 16 March 2026
Orbit: 773 x 789 km, 98.2° (Epoch: 19 April)

Event Time Altitude Azimuth Distance (km) Brightness Sun altitude
Rises 19:31:25 0° 205° (SSW) 3,249 7.0 -12.9°
Reaches altitude 10° 19:34:22 10° 222° (SW) 2,330 6.5 -13.5°
Maximum altitude 19:37:59 19° 268° (W) 1,779 6.5 -14.2°
Drops below altitude 10° 19:41:40 10° 313° (NW) 2,349 6.9 -14.9°
Sets 19:44:40 0° 331° (NNW) 3,285 7.4 -15.4°
